Location: Kielce
(50.8833°N, 20.6167°E)
Time: 21:12:48
(UTC+02:00)

SR - Pass Details

Date: 29 April 2021
Orbit: 573 x 882 km, 66.7° (Epoch: 09 May)

Event Time Altitude Azimuth Distance (km) Brightness Sun altitude
Rises 13:07:04 0° 322° (NW) 3,486 ? 53.2°
Reaches altitude 10° 13:09:44 10° 328° (NNW) 2,530 ? 53.1°
Maximum altitude 13:15:23 46° 41° (NE) 1,124 ? 52.8°
Drops below altitude 10° 13:20:43 10° 115° (ESE) 2,383 ? 52.6°
Sets 13:23:09 0° 121° (ESE) 3,264 ? 52.4°
